| time (UTC) | temp C | wind direction | speed KPH | gust KPH | rain 1hr cm | rain 24hr cm | rain mn cm | humidity % | barometer mb |
| 20260505100313 | 23 | 0 | 8.0 | 0.0 | 0.00 | 0.00 | 0.00 | 36 | 1007.0 |
| 20260505093304 | 22 | 0 | 4.8 | 0.0 | 0.00 | 0.00 | 0.00 | 40 | 1007.0 |
| 20260505090313 | 22 | 140 | 4.8 | 0.0 | 0.00 | 0.00 | 0.00 | 40 | 1007.0 |
| 20260505083305 | 21 | 70 | 4.8 | 0.0 | 0.00 | 0.00 | 0.00 | 49 | 1007.0 |
| 20260505080252 | 21 | 0 | 3.2 | 0.0 | 0.00 | 0.00 | 0.00 | 49 | 1008.0 |
| 20260505073238 | 18 | 110 | 4.8 | 0.0 | 0.00 | 0.00 | 0.00 | 52 | 1008.0 |
| 20260505070322 | 17 | 100 | 4.8 | 0.0 | 0.00 | 0.00 | 0.00 | 55 | 1008.0 |
| 20260505063237 | 16 | 0 | 3.2 | 0.0 | 0.00 | 0.00 | 0.00 | 67 | 1008.0 |
| 20260505060313 | 15 | 0 | 3.2 | 0.0 | 0.00 | 0.00 | 0.00 | 72 | 1009.0 |
| 20260505053227 | 13 | 80 | 8.0 | 0.0 | 0.00 | 0.00 | 0.00 | 76 | 1009.0 |
| 20260505050245 | 12 | 90 | 3.2 | 0.0 | 0.00 | 0.00 | 0.00 | 81 | 1009.0 |
| 20260505040247 | 8 | 260 | 3.2 | 0.0 | 0.00 | 0.00 | 0.00 | 81 | 1009.0 |
| 20260505033305 | 10 | 0 | 0.0 | 0.0 | 0.00 | 0.00 | 0.00 | 81 | 1009.0 |
| 20260505030307 | 11 | 270 | 3.2 | 0.0 | 0.00 | 0.00 | 0.00 | 76 | 1009.0 |
| 20260505023231 | 12 | 0 | 3.2 | 0.0 | 0.00 | 0.00 | 0.00 | 76 | 1009.0 |
| 20260505020245 | 13 | 0 | 0.0 | 0.0 | 0.00 | 0.00 | 0.00 | 71 | 1009.0 |
| 20260505013305 | 12 | 0 | 1.6 | 0.0 | 0.00 | 0.00 | 0.00 | 76 | 1009.0 |
| 20260505010246 | 12 | 0 | 1.6 | 0.0 | 0.00 | 0.00 | 0.00 | 76 | 1010.0 |
| 20260505003304 | 15 | 0 | 3.2 | 0.0 | 0.00 | 0.00 | 0.00 | 67 | 1010.0 |
| 20260505000307 | 16 | 260 | 8.0 | 0.0 | 0.00 | 0.00 | 0.00 | 63 | 1010.0 |
| 20260504233231 | 16 | 0 | 0.0 | 0.0 | 0.00 | 0.00 | 0.00 | 63 | 1010.0 |
| 20260504230306 | 17 | 260 | 4.8 | 0.0 | 0.00 | 0.00 | 0.00 | 59 | 1011.0 |
| 20260504223304 | 17 | 270 | 8.0 | 0.0 | 0.00 | 0.00 | 0.00 | 55 | 1011.0 |
| 20260504220247 | 18 | 310 | 8.0 | 0.0 | 0.00 | 0.00 | 0.00 | 52 | 1011.0 |
| 20260504213304 | 18 | 320 | 8.0 | 0.0 | 0.00 | 0.00 | 0.00 | 52 | 1011.0 |
| 20260504210307 | 18 | 310 | 9.7 | 0.0 | 0.00 | 0.00 | 0.00 | 48 | 1011.0 |
| 20260504203230 | 17 | 280 | 8.0 | 0.0 | 0.00 | 0.00 | 0.00 | 59 | 1011.0 |
| 20260504200307 | 17 | 0 | 3.2 | 0.0 | 0.00 | 0.00 | 0.00 | 59 | 1011.0 |
| 20260504193231 | 17 | 0 | 1.6 | 0.0 | 0.00 | 0.00 | 0.00 | 52 | 1011.0 |
| 20260504190248 | 18 | 30 | 3.2 | 0.0 | 0.00 | 0.00 | 0.00 | 48 | 1011.0 |
| 20260504183238 | 22 | 0 | 3.2 | 0.0 | 0.00 | 0.00 | 0.00 | 37 | 1010.0 |
| 20260504180240 | 22 | 50 | 4.8 | 0.0 | 0.00 | 0.00 | 0.00 | 35 | 1010.0 |
| 20260504173305 | 22 | 60 | 4.8 | 0.0 | 0.00 | 0.00 | 0.00 | 33 | 1010.0 |
| 20260504170306 | 23 | 50 | 4.8 | 0.0 | 0.00 | 0.00 | 0.00 | 31 | 1010.0 |
| 20260504160307 | 25 | 60 | 4.8 | 0.0 | 0.00 | 0.00 | 0.00 | 27 | 1011.0 |
| 20260504150315 | 23 | 0 | 3.2 | 0.0 | 0.00 | 0.00 | 0.00 | 29 | 1011.0 |
| 20260504140312 | 25 | 0 | 4.8 | 0.0 | 0.00 | 0.00 | 0.00 | 29 | 1012.0 |
| 20260504130254 | 25 | 0 | 9.7 | 0.0 | 0.00 | 0.00 | 0.00 | 31 | 1012.0 |
| 20260504120313 | 25 | 150 | 9.7 | 0.0 | 0.00 | 0.00 | 0.00 | 29 | 1013.0 |
| 20260504110315 | 23 | 0 | 8.0 | 0.0 | 0.00 | 0.00 | 0.00 | 31 | 1013.0 |